RH
49 55 58 64 74 82 90 98 99 96 97 100 103 105 106 103 102 103 102 101 100 99 97 98 101 103 100 96 95 95 97 102 105 108 108 104 101 101 101 100 102 104 105 106 105 105 105 104 103 102 102 101 98 96 94 92 91 89 89 88 87 87 85 82 79 77 76 74 72 70 67 63 60 56 52 47 42 37 32 28 27 25 24 23 23 23 23 23
41 46 51 54 61 72 81 89 95 94 91 93 97 100 104 105 105 105 104 102 100 100 100 99 100 103 104 103 103 101 100 102 105 107 107 104 101 101 101 101 101 102 102 102 102 103 103 103 103 102 101 99 96 94 93 91 90 89 89 88 86 84 81 80 78 77 75 72 69 64 61 57 53 50 45 40 34 30 26 25 24 24 23 23 23 23 23 24
34 35 40 44 49 58 70 79 88 92 90 88 90 94 97 101 104 105 106 105 102 101 101 101 101 101 103 105 107 108 105 105 106 107 105 103 102 102 102 102 101 100 101 102 103 102 102 102 101 100 98 96 95 94 92 90 89 87 87 87 85 83 81 80 77 74 71 66 62 58 55 52 48 43 38 33 28 26 25 24 24 24 23 24 24 24 24 24
32 29 29 34 39 44 54 66 77 86 89 88 87 88 90 94 98 101 103 105 105 104 103 102 102 103 104 104 105 105 104 104 104 104 104 104 103 103 104 103 101 102 103 104 103 103 103 101 99 97 96 96 95 93 90 88 87 86 87 87 86 84 81 77 73 68 63 60 57 54 51 47 42 37 32 27 25 25 25 24 25 24 24 25 25 25 25 25
26 27 25 25 28 33 39 50 63 73 81 86 88 86 86 88 91 95 98 100 103 105 106 106 105 105 104 103 103 103 102 103 103 103 103 103 102 103 105 104 104 104 104 103 102 101 100 98 96 95 94 93 92 89 87 87 87 88 88 88 85 81 76 71 66 62 58 56 53 51 47 42 37 32 28 25 25 26 26 27 26 26 26 26 27 27 26 26
16 18 21 20 21 24 27 34 46 58 67 78 85 87 87 86 86 89 93 96 98 101 105 107 107 107 105 103 103 103 102 102 101 102 103 103 103 104 105 104 104 103 101 100 98 96 95 93 92 91 89 88 86 86 87 88 89 91 89 86 81 75 69 64 60 57 55 53 51 49 45 40 35 30 27 26 26 27 28 28 27 28 28 28 28 28 27 27
10 9 11 14 16 18 21 26 32 43 54 66 78 85 88 89 88 88 90 93 95 97 101 104 106 107 107 105 104 103 103 103 102 102 102 102 103 103 103 101 100 99 98 96 94 93 91 89 87 85 84 84 85 86 88 90 91 91 86 81 74 68 64 60 57 55 53 53 51 49 46 41 36 31 28 28 28 30 30 29 28 28 28 29 28 27 28 28
9 8 7 7 9 12 16 20 26 33 41 54 68 79 87 92 93 91 91 92 93 95 97 100 103 106 106 106 105 104 104 104 103 104 103 102 102 101 101 99 98 96 95 93 92 90 88 86 84 84 84 85 87 88 90 92 90 86 80 74 69 64 61 58 55 54 53 54 53 52 49 45 41 36 31 30 31 31 30 28 28 28 28 28 28 28 29 29
8 7 7 6 5 7 9 14 22 27 31 41 56 70 80 89 94 95 94 94 94 95 97 97 99 100 101 102 103 103 103 102 102 102 102 101 100 99 98 97 96 95 93 91 89 88 87 86 86 86 86 87 88 90 92 89 85 80 75 71 67 63 61 58 54 53 54 55 56 56 54 51 47 42 36 33 32 31 30 29 28 28 28 29 29 29 30 29
7 6 6 6 5 5 6 10 18 22 25 31 43 59 71 79 86 92 95 95 96 96 97 97 98 98 98 99 100 100 99 99 99 98 99 98 96 96 96 96 95 94 92 90 89 88 87 87 87 86 87 89 90 91 89 84 79 75 72 70 67 65 62 58 54 54 56 59 61 61 61 59 54 49 42 36 34 32 30 29 29 29 30 30 29 30 30 29
5 6 5 5 4 5 5 7 12 18 23 26 33 45 60 70 76 81 87 92 95 96 97 97 98 98 97 97 98 99 99 98 97 96 96 95 94 94 94 93 92 91 89 87 87 86 86 85 85 86 88 90 90 88 83 79 76 74 72 70 68 67 65 61 58 57 61 65 67 69 70 68 62 55 48 41 37 34 32 31 31 30 30 30 30 31 29 27
5 5 4 4 4 4 5 6 9 14 20 24 28 36 47 60 69 73 76 80 86 91 94 96 98 98 96 96 97 97 97 96 95 94 94 93 92 92 90 89 87 86 84 83 83 83 82 82 84 88 90 89 88 84 81 78 76 74 72 71 71 72 72 69 66 65 67 70 74 77 77 74 69 63 55 48 42 37 34 32 31 31 31 31 31 30 27 26
6 5 4 4 4 4 6 6 9 14 18 22 28 35 40 49 60 68 71 73 75 79 83 88 92 95 96 97 97 96 96 95 94 93 93 91 90 88 86 84 82 81 79 79 81 80 80 83 88 92 90 88 86 83 81 78 75 73 72 74 76 78 80 79 75 72 70 73 78 80 82 80 76 73 66 57 47 39 34 32 32 32 32 32 30 28 26 26
8 7 5 5 5 6 7 8 10 12 16 23 30 36 39 43 50 59 67 70 71 72 74 77 81 86 90 93 93 93 93 92 92 90 88 86 84 81 79 78 77 75 75 76 78 79 84 89 92 92 90 88 87 83 79 75 74 76 78 81 82 82 84 84 80 75 73 77 81 82 86 86 82 80 73 62 48 37 34 32 32 33 32 31 28 27 26 27
13 10 9 8 9 10 11 13 15 16 18 25 32 37 41 45 48 54 61 66 70 72 73 74 76 79 82 84 85 85 84 83 81 79 77 75 73 72 72 72 72 72 74 78 82 88 94 95 94 94 93 88 82 77 75 76 78 81 83 86 89 87 84 85 83 76 73 79 84 85 89 91 87 79 68 55 42 33 33 33 33 33 31 29 27 26 27 29
24 19 18 15 14 15 18 20 20 21 22 25 31 37 42 47 51 54 58 62 67 71 73 74 74 75 76 75 75 74 73 72 70 69 67 66 67 68 71 73 75 79 84 90 95 99 100 98 96 94 89 81 74 73 75 77 80 81 83 86 88 86 82 83 83 77 74 82 89 89 89 93 87 71 56 44 36 34 34 34 34 32 29 27 27 27 29 30
35 35 39 38 30 23 24 26 26 25 24 26 31 37 43 47 51 56 60 66 70 74 76 77 77 75 74 72 71 71 69 68 67 67 66 67 70 74 79 84 90 97 102 104 105 103 100 96 92 86 79 73 71 73 75 75 76 78 83 86 86 85 84 83 82 79 80 86 91 89 88 90 80 61 49 41 37 36 35 35 33 29 28 27 27 29 30 32
35 37 43 50 51 44 38 36 35 34 33 34 37 42 48 52 57 63 68 72 75 78 80 81 80 79 78 76 75 74 73 74 73 74 75 77 81 87 94 99 104 109 110 107 104 100 94 88 82 78 75 74 74 74 75 75 75 78 83 88 89 89 89 87 86 85 86 89 90 86 84 82 72 59 51 44 38 36 35 34 31 29 28 27 29 31 31 38
40 41 39 40 45 49 53 53 51 51 51 51 53 58 64 70 74 77 79 80 81 83 84 84 83 80 82 85 85 83 82 81 80 81 84 89 95 102 108 110 111 112 109 104 100 93 87 81 79 79 80 79 77 77 78 79 79 82 86 91 93 93 93 91 88 86 84 83 85 84 81 77 70 61 53 45 38 35 35 33 30 28 28 29 30 31 38 47
46 51 53 50 48 46 49 53 55 58 61 64 68 71 77 81 82 83 82 84 87 90 89 87 85 83 85 88 85 81 80 80 83 88 95 100 105 109 111 111 111 109 105 100 93 86 82 83 85 86 84 80 79 83 86 84 83 87 92 95 97 97 95 92 88 84 79 78 81 81 79 77 70 59 50 42 36 34 35 33 30 29 29 31 30 37 49 47
55 53 55 59 63 62 57 54 53 55 55 58 63 68 73 75 78 83 87 91 92 92 91 89 89 89 91 89 84 83 87 90 94 99 103 105 104 104 104 104 104 102 98 93 89 88 89 91 92 88 82 80 85 92 90 85 86 92 98 101 101 98 94 90 86 83 78 78 80 78 75 74 67 57 48 40 35 34 35 32 29 30 31 30 35 48 50 33
70 65 60 58 62 66 67 67 67 66 62 59 58 60 67 75 85 92 97 102 99 87 83 87 92 95 95 94 95 98 101 103 104 103 102 102 100 100 101 100 101 101 98 97 96 98 99 97 92 84 81 85 91 93 87 84 89 98 103 103 100 94 88 86 85 83 80 79 80 77 72 67 58 52 45 37 33 33 32 31 30 31 31 32 46 53 37 22
82 78 73 68 65 64 64 64 67 70 72 71 67 63 65 73 86 94 96 98 96 83 77 81 90 99 99 99 102 103 103 102 100 99 97 98 100 101 101 101 103 103 101 101 100 101 100 93 86 83 84 89 90 87 83 86 94 101 103 99 93 89 84 80 78 80 81 81 82 74 61 52 47 46 42 34 33 33 32 32 31 31 32 41 53 43 23 22
95 92 89 85 81 76 70 65 61 62 66 70 73 74 73 74 80 87 89 88 84 77 77 81 89 98 103 103 104 103 103 100 96 95 95 99 102 102 102 103 105 104 102 101 101 99 93 86 82 82 85 87 88 87 88 92 95 100 103 97 91 86 81 75 73 75 79 80 81 72 53 42 40 42 39 32 32 33 32 31 31 31 39 49 46 28 20 28
100 101 101 99 95 92 85 75 68 65 63 61 65 70 73 75 78 80 83 85 79 75 78 84 90 98 105 107 105 102 102 101 99 99 100 102 102 99 101 104 106 107 105 102 101 97 91 85 81 81 85 89 91 93 95 96 95 97 101 97 89 82 76 75 74 74 75 72 73 66 47 37 37 37 34 31 31 33 30 30 31 35 45 47 34 22 25 31
101 102 103 103 101 98 92 84 79 77 71 64 61 62 64 68 72 72 75 77 75 76 81 86 95 104 107 105 102 101 101 101 100 101 101 101 99 96 99 104 105 107 107 102 100 101 96 87 82 85 91 93 94 96 99 98 95 96 96 90 84 79 77 77 75 70 65 59 58 53 40 33 34 34 32 32 33 33 30 30 33 38 43 39 29 26 30 31
102 102 102 102 101 98 92 86 83 78 72 67 62 59 59 60 62 65 68 69 66 69 74 80 92 103 105 103 101 101 101 101 101 101 100 99 98 99 103 105 103 104 106 102 101 105 96 83 85 93 96 96 99 102 104 100 96 94 91 85 81 79 78 75 69 60 52 46 43 43 39 34 34 35 35 35 34 34 33 33 34 36 39 38 34 31 31 32
100 100 100 100 100 96 91 86 82 75 68 64 58 54 52 51 52 55 58 63 67 69 69 70 77 86 94 99 101 102 102 101 102 101 98 97 100 104 105 103 102 103 103 100 101 101 90 86 96 101 97 99 103 105 104 100 95 91 86 83 80 79 76 69 58 47 39 35 32 35 36 34 36 38 37 36 37 37 33 30 30 35 41 42 37 33 34 35
96 99 100 100 96 89 85 81 77 70 63 56 50 47 45 45 47 47 48 52 59 67 72 73 73 75 82 91 98 104 105 105 103 99 97 99 104 106 103 101 101 101 101 101 100 93 89 98 106 101 95 100 105 105 102 98 92 88 86 84 80 76 70 56 42 34 30 29 29 32 34 37 43 45 43 42 39 33 28 27 31 39 45 43 37 36 39 40
98 100 101 99 94 87 82 74 66 60 54 48 44 42 41 42 43 45 45 44 47 56 69 81 86 86 86 90 99 106 107 105 102 100 102 104 103 102 101 100 101 103 103 101 94 90 97 108 105 96 96 100 103 104 101 95 91 90 88 84 78 71 58 41 31 29 28 29 31 35 40 45 50 52 51 43 32 25 25 29 35 42 44 40 37 40 44 48
101 101 101 98 93 88 80 68 57 49 43 40 39 39 40 42 43 44 44 42 44 49 59 78 95 100 96 94 100 105 106 107 104 102 103 103 102 102 102 102 103 105 101 95 95 98 104 105 98 95 98 101 103 102 98 94 95 93 88 83 74 57 40 29 27 29 29 32 36 41 46 52 59 64 58 39 24 24 28 32 38 41 40 39 41 47 52 57
102 99 97 94 90 82 71 58 48 40 36 36 38 39 41 42 42 44 43 42 45 47 50 64 87 103 104 100 101 102 103 107 105 100 100 104 106 104 102 102 102 99 95 97 104 105 104 102 99 98 101 103 103 101 98 98 99 97 92 84 65 41 28 26 28 30 32 34 38 44 54 65 71 66 50 31 24 29 32 36 40 41 41 44 49 54 58 61
100 95 91 88 81 69 57 46 38 34 34 36 39 41 43 43 43 43 42 40 41 44 46 52 70 91 103 106 107 104 103 104 101 100 101 103 103 101 101 102 100 96 96 102 107 102 97 95 95 99 103 104 102 101 100 97 96 98 92 72 48 31 26 28 30 34 35 35 40 55 69 73 62 44 31 28 30 33 37 42 46 46 46 49 54 57 59 60
95 89 85 78 67 55 44 36 31 31 33 35 39 42 43 43 43 41 40 38 37 41 45 49 65 90 106 110 106 100 102 102 99 101 101 101 101 101 101 100 98 97 100 102 100 92 86 84 90 98 101 101 102 101 97 94 92 88 72 48 33 29 29 31 33 33 35 39 50 65 70 58 40 29 29 32 34 37 43 50 52 51 52 54 57 58 59 60
90 83 75 65 52 41 34 29 27 29 31 34 37 40 40 41 41 40 38 36 36 40 46 56 75 94 99 95 92 93 98 101 101 102 103 101 98 96 97 97 97 100 103 101 92 83 81 86 94 101 104 105 102 97 96 94 82 63 44 32 30 32 35 36 33 34 44 51 52 53 51 43 33 32 37 40 41 45 52 57 58 56 56 57 58 60 63 64
81 73 62 49 39 31 26 24 25 26 29 31 34 36 38 39 40 39 37 36 39 43 48 58 72 80 80 83 91 97 99 102 104 104 103 100 95 95 98 100 101 104 102 94 85 82 84 91 100 106 106 102 97 97 96 82 57 39 32 32 34 36 37 35 35 45 55 51 41 36 39 41 39 39 44 47 49 54 59 61 61 60 59 59 61 65 67 67
70 60 48 37 29 24 21 21 22 24 26 28 31 34 36 38 39 38 37 38 41 46 52 60 67 76 88 97 101 101 101 103 102 99 100 102 101 101 102 102 103 102 94 87 86 87 89 96 104 105 101 98 98 95 79 54 36 31 33 37 38 37 35 37 48 57 50 37 32 32 37 45 49 49 49 50 53 58 60 60 62 65 67 68 71 75 77 77
59 46 36 28 22 19 18 18 20 22 24 26 29 32 35 38 39 38 40 42 45 50 57 68 82 94 101 104 103 103 105 104 100 98 100 103 102 103 103 103 100 95 91 89 91 94 97 100 101 101 104 104 93 72 48 35 34 36 39 41 37 34 39 47 54 50 36 29 32 34 37 47 56 57 55 54 56 57 57 60 65 69 72 75 80 84 85 85
46 34 26 20 16 15 15 16 18 19 22 25 28 32 36 38 41 41 43 47 53 60 65 75 91 102 102 101 102 104 104 103 101 101 102 102 103 104 102 99 95 93 93 94 97 100 100 100 101 103 102 86 61 41 34 36 40 43 43 40 37 44 53 52 42 35 31 32 36 37 39 46 54 55 53 52 51 51 54 59 63 67 72 76 79 80 80 78
34 24 19 15 13 14 14 15 16 17 20 24 28 33 36 40 44 46 48 54 61 70 75 79 88 98 103 105 106 105 104 104 104 104 105 104 101 98 95 94 93 95 97 100 102 100 99 102 104 93 72 49 37 36 40 41 41 41 40 41 50 58 56 43 34 36 38 38 41 41 41 48 52 50 48 47 45 49 55 59 63 69 73 75 74 74 72 71
23 17 14 12 12 13 13 14 15 16 19 24 29 36 40 44 48 50 54 60 65 71 80 88 94 102 107 109 109 108 106 106 105 106 106 101 95 92 93 95 97 100 102 102 100 101 103 101 84 59 41 37 40 43 43 42 40 41 46 54 60 56 44 35 36 41 44 48 52 48 46 53 56 54 53 51 52 60 67 70 72 74 74 74 73 71 71 72
16 14 13 12 12 12 13 14 15 16 20 25 32 40 45 49 52 54 57 62 68 75 85 96 101 105 107 106 108 109 107 107 107 103 97 94 92 94 96 99 101 102 100 99 103 104 94 72 49 39 41 45 45 41 40 42 46 53 59 59 52 42 38 39 40 42 44 48 52 49 48 52 55 59 62 60 65 74 76 75 74 74 74 75 75 75 77 78
13 14 14 12 11 12 13 15 16 18 22 28 36 42 48 52 53 56 61 67 74 81 89 97 100 102 104 103 103 103 100 100 99 94 91 93 97 100 102 101 100 99 101 104 101 84 60 44 40 44 46 46 44 45 49 56 61 62 57 48 42 40 43 47 47 46 45 47 49 50 52 55 56 61 64 63 67 72 72 73 76 78 82 83 82 80 75 69
13 15 14 12 12 13 15 17 18 21 25 30 37 43 48 54 57 60 65 69 74 79 83 88 91 93 94 94 93 91 89 90 93 95 97 101 103 103 101 99 100 104 101 88 70 52 43 43 43 42 44 48 54 60 66 70 68 62 52 45 44 46 50 53 53 50 48 51 54 55 60 66 66 63 62 64 70 74 80 86 90 91 90 84 75 68 62 61
15 14 12 12 13 15 17 19 21 25 28 33 38 42 47 53 58 63 67 70 75 79 81 83 84 85 86 85 86 87 89 93 99 103 104 103 101 100 101 103 100 89 72 54 45 44 45 46 45 47 52 53 52 53 56 57 55 53 50 47 48 52 55 56 55 51 49 50 54 57 62 68 72 69 69 76 85 92 98 100 95 87 77 66 59 59 63 66
14 12 11 12 14 17 19 21 25 28 31 35 38 41 45 49 54 59 62 67 71 72 74 77 78 80 83 87 92 98 102 104 104 103 102 101 102 102 98 86 70 54 45 43 43 45 51 57 58 56 50 43 39 38 40 41 41 42 44 45 49 52 54 54 53 51 50 50 54 59 62 67 75 77 79 86 94 95 92 85 75 67 61 58 59 64 66 64
12 11 12 14 16 19 21 24 27 30 33 36 38 41 44 45 46 49 53 58 63 65 70 76 82 89 96 102 105 106 105 104 102 102 103 100 92 80 65 52 44 43 42 44 48 54 62 65 57 49 44 39 37 37 36 36 37 40 44 46 48 50 52 54 54 53 53 54 59 65 69 72 78 83 86 88 84 77 69 63 61 62 61 61 62 62 59 53
12 12 12 15 18 20 23 26 29 31 33 35 38 41 43 44 48 52 57 63 70 77 85 92 98 104 105 105 104 103 103 104 103 98 88 74 58 47 43 42 42 44 47 54 60 58 56 52 47 48 50 44 38 37 38 38 39 44 48 50 51 53 54 54 54 55 56 60 65 71 75 78 81 82 79 71 63 58 58 62 65 65 61 58 56 53 48 43
13 13 14 17 19 21 24 27 30 31 33 36 39 43 47 52 59 67 75 83 91 99 104 105 106 106 104 103 104 103 99 93 84 69 53 45 41 42 44 43 45 53 60 62 56 45 42 46 48 50 52 48 43 41 43 44 47 50 53 54 53 53 53 54 57 59 62 67 73 76 78 77 72 65 60 56 57 59 63 67 67 63 57 52 49 46 44 44
15 15 17 19 20 23 26 29 32 36 40 44 49 56 63 71 79 88 98 104 105 105 105 104 105 103 100 96 89 79 67 57 50 44 41 43 43 42 44 52 61 65 60 51 43 40 42 46 46 45 50 53 49 46 48 51 53 54 54 53 51 52 55 59 64 67 70 74 76 73 68 61 56 56 58 61 64 65 66 66 63 57 51 49 48 49 50 50
18 21 23 25 28 31 35 39 43 48 53 59 66 75 83 90 95 100 103 103 101 99 96 92 87 80 72 62 54 48 44 42 42 42 42 41 43 49 58 64 63 55 47 44 45 45 43 43 44 45 48 53 52 51 52 53 52 53 54 55 56 59 64 68 71 72 70 68 63 56 52 52 57 62 65 66 66 65 64 62 57 52 51 53 54 52 49 46
26 30 33 36 41 45 49 55 59 64 68 74 81 86 88 90 90 88 86 83 80 76 70 62 55 49 46 43 42 42 42 43 42 41 43 48 56 62 61 54 46 43 44 46 45 44 43 44 46 46 48 52 53 51 49 50 52 56 60 64 66 67 68 68 67 62 57 54 52 52 54 58 61 63 64 64 64 64 64 62 57 53 51 50 49 46 45 44
Wind_Speed
39 43 46 50 52 53 54 54 54 54 54 53 52 51 50 49 48 46 45 44 44 46 49 51 51 50 51 51 50 50 49 48 47 47 46 46 46 47 47 48 48 49 49 50 50 50 50 50 51 51 52 54 54 55 56 56 57 57 58 58 58 59 59 60 61 61 61 61 61 61 61 60 60 60 59 59 58 58 58 58 58 58 57 56 58 60 61 62
38 43 47 50 53 55 56 56 56 56 55 54 53 52 51 50 49 48 46 45 43 44 45 47 49 50 50 50 50 50 50 49 49 49 48 48 48 48 49 49 50 50 51 50 51 51 52 52 53 54 54 54 55 55 55 56 56 57 57 57 58 59 60 60 60 60 60 60 59 59 59 58 58 58 57 57 57 57 57 57 58 57 57 57 60 61 63 64
37 41 46 50 54 57 58 58 58 58 57 55 55 54 53 52 51 49 48 46 44 43 43 43 45 47 49 49 49 49 48 48 48 48 48 48 48 48 49 49 49 50 50 50 51 52 52 53 53 53 54 54 54 54 55 55 56 56 57 57 58 58 59 59 59 59 58 58 58 57 57 57 56 56 56 55 55 56 57 57 57 58 59 59 62 63 64 66
37 40 43 48 53 57 60 61 60 60 59 57 56 55 54 53 52 51 49 48 46 45 44 43 43 44 45 47 48 48 47 46 46 46 47 47 47 48 48 48 48 48 48 49 50 51 51 52 52 52 53 53 54 54 54 55 55 56 56 56 56 57 57 57 57 57 57 56 56 55 55 55 55 55 54 54 55 56 57 58 58 60 61 61 63 65 66 67
38 40 42 45 50 55 59 61 62 62 62 59 57 56 55 54 53 52 50 49 48 47 46 45 44 44 44 44 45 45 45 45 46 46 46 47 47 48 48 48 48 48 49 50 50 51 51 51 52 52 52 52 53 53 54 54 54 54 54 55 55 55 55 55 55 55 55 54 54 54 54 53 53 53 54 54 55 56 58 59 60 61 63 63 65 67 68 68
36 40 43 44 46 49 54 59 62 63 63 61 59 57 55 54 53 52 51 50 49 48 47 46 45 45 44 44 44 44 44 45 46 46 47 47 47 48 48 49 50 50 51 51 51 52 52 51 51 51 52 52 52 53 53 53 53 53 53 53 53 53 53 53 53 53 53 52 53 53 53 53 52 52 54 55 56 58 59 60 61 63 64 65 66 68 68 69
32 36 40 43 44 46 49 54 58 61 62 62 60 58 56 55 54 53 52 51 50 49 48 47 46 45 45 45 45 45 45 45 45 46 46 47 47 48 49 49 50 50 50 50 51 51 51 51 51 52 52 52 52 52 52 52 52 51 52 52 52 52 52 52 52 52 52 51 52 52 52 53 52 52 54 56 57 59 61 62 62 64 65 66 68 68 69 70
30 32 34 37 41 44 45 48 53 58 60 61 61 59 57 56 55 53 52 51 50 49 48 47 46 46 45 45 45 45 45 45 45 46 46 47 47 48 48 49 49 50 50 50 50 50 51 51 51 51 51 51 51 51 51 50 51 51 51 51 51 51 51 51 51 51 51 51 52 52 53 53 52 52 54 56 59 61 62 63 63 64 66 67 69 69 70 71
24 28 30 32 35 40 42 43 47 53 56 59 60 59 58 56 55 54 53 51 50 49 48 47 46 46 46 45 45 45 45 46 46 46 46 47 47 47 48 48 49 49 49 50 50 50 51 51 51 51 50 50 50 50 50 50 50 51 50 50 51 51 51 51 51 51 51 51 52 53 54 54 54 53 55 58 60 62 63 63 64 65 67 68 69 70 71 72
17 22 26 28 30 33 37 41 45 48 51 54 57 59 58 57 55 54 53 52 50 49 48 47 47 46 46 46 45 45 46 46 47 47 47 47 47 47 48 48 49 49 49 50 50 50 50 50 50 50 49 49 49 49 49 50 50 50 51 51 51 51 50 50 50 51 51 52 52 54 55 56 55 54 56 59 61 63 64 64 65 66 68 70 70 71 72 73
12 17 21 23 26 29 33 39 43 44 45 49 53 56 57 57 56 54 53 52 51 50 49 48 47 47 47 47 46 46 46 46 46 47 47 47 47 47 48 48 48 48 49 49 49 49 49 49 49 49 48 48 49 49 49 50 50 51 51 51 50 50 50 50 51 51 52 53 53 55 57 58 57 56 57 59 63 64 65 65 66 67 69 70 71 72 73 73
9 12 16 19 22 26 29 34 40 42 42 44 47 50 54 55 55 54 53 52 50 49 48 48 47 47 47 46 46 46 46 46 46 46 46 47 47 47 47 47 48 48 48 48 48 48 48 48 48 48 48 48 48 49 49 50 51 51 51 50 50 50 50 50 51 53 53 54 54 55 58 60 59 58 58 60 64 65 66 67 67 68 70 70 71 73 73 73
6 9 14 17 19 22 25 30 36 40 41 40 41 44 48 51 53 53 52 51 50 49 47 47 46 46 45 45 45 45 45 46 46 46 46 46 47 47 47 47 48 48 48 48 48 48 48 48 47 47 47 48 48 49 50 50 51 51 50 50 50 50 51 52 53 54 55 55 56 56 59 62 61 60 60 61 64 66 67 67 68 69 70 71 72 73 74 73
7 8 11 15 17 19 22 26 32 37 38 37 36 38 41 44 48 50 50 49 48 47 46 45 44 44 43 43 44 44 45 45 45 46 46 46 47 47 47 47 47 47 47 47 47 47 47 46 46 46 47 47 48 49 50 50 50 50 50 50 51 51 52 54 54 55 56 57 58 58 60 63 63 61 61 63 65 66 67 68 68 69 70 71 73 73 73 72
9 11 12 14 16 17 19 23 28 32 34 34 34 34 35 37 40 43 45 46 46 45 44 44 43 43 42 43 43 44 44 45 46 46 46 46 46 46 46 46 46 46 46 46 46 45 45 45 46 46 47 48 49 49 49 49 49 50 50 51 52 53 53 55 56 57 57 59 60 60 61 65 66 63 62 64 65 66 67 68 68 69 70 71 72 73 72 71
8 12 13 13 14 15 17 19 23 28 31 32 33 32 32 33 34 37 39 41 42 43 43 43 43 43 42 43 43 44 44 45 46 46 46 45 45 45 45 45 45 45 44 44 44 44 44 45 46 47 48 49 49 49 48 48 49 50 52 52 54 55 55 55 57 59 59 60 61 62 62 66 68 66 64 65 66 67 67 68 69 70 71 71 72 71 71 70
9 11 13 13 12 13 14 16 18 21 25 28 29 30 30 31 31 32 34 37 39 40 40 41 41 41 41 42 42 43 44 44 44 44 44 44 44 44 44 43 43 43 43 43 43 44 45 46 47 47 48 48 48 48 48 48 49 50 52 53 54 55 56 55 57 59 60 61 62 63 63 66 69 68 66 66 67 68 69 69 70 71 71 71 71 71 70 69
8 10 12 13 13 13 13 15 17 19 21 24 26 27 27 28 29 30 31 33 35 36 37 38 39 39 39 40 41 42 42 43 43 43 43 43 42 42 42 42 42 42 42 43 44 45 45 46 46 47 48 48 48 48 49 50 51 51 52 53 54 55 56 57 58 60 60 61 63 64 64 66 69 69 69 68 68 69 70 71 71 71 71 70 70 70 69 68
6 7 8 10 12 13 13 14 16 18 20 22 23 25 26 26 27 29 30 31 31 33 34 36 37 38 39 40 41 41 42 42 42 42 41 41 41 40 40 41 41 42 43 44 44 45 45 46 46 47 47 47 48 50 51 52 53 53 53 54 54 56 57 58 59 60 60 61 63 65 65 67 70 70 70 70 70 70 71 71 71 71 70 69 69 68 66 65
4 4 4 5 7 10 12 14 15 17 19 21 22 23 25 26 26 27 28 28 29 31 33 35 36 37 39 41 41 41 41 41 41 40 40 40 40 40 41 41 42 43 44 44 45 45 46 46 46 46 47 49 50 52 52 53 54 55 55 55 55 56 57 59 60 61 62 62 64 65 66 69 70 70 71 71 71 72 73 72 72 70 69 68 66 64 64 62
4 3 3 4 6 8 10 12 14 16 18 20 22 23 24 25 25 26 27 28 31 33 34 35 36 37 38 40 40 39 39 39 38 38 38 39 40 41 41 42 43 43 44 45 45 46 46 46 47 48 50 51 52 52 53 54 56 57 56 56 56 56 58 59 61 63 63 63 64 65 66 69 71 72 72 72 72 73 73 73 71 69 68 65 62 61 62 56
3 2 2 3 5 7 9 11 13 15 18 20 22 24 25 26 27 27 28 30 33 35 36 36 36 37 38 38 37 37 36 36 36 38 39 40 41 42 42 43 43 44 44 45 45 46 47 48 49 51 52 53 53 54 55 56 57 57 57 56 57 57 58 59 61 63 65 64 64 65 65 67 71 73 73 72 73 73 73 72 70 69 65 58 57 60 58 48
1 1 2 3 5 7 9 11 12 15 17 20 22 24 26 28 29 30 31 34 36 37 36 36 36 36 37 36 36 36 36 37 38 40 41 42 42 42 43 43 43 44 44 45 46 47 49 50 51 52 53 54 55 57 57 57 57 58 58 57 57 58 59 60 61 63 65 65 65 65 65 66 69 73 75 73 72 74 73 70 69 66 58 52 56 59 50 43
4 5 5 6 7 9 10 12 13 15 17 19 22 24 27 29 31 33 34 36 38 37 36 35 35 36 36 36 37 38 40 41 42 43 44 44 44 44 44 44 44 45 46 46 47 49 51 52 52 53 55 56 57 59 58 58 57 57 58 58 58 59 60 62 63 63 64 65 66 67 66 66 69 72 74 72 72 73 70 69 67 59 51 52 56 54 45 43
6 7 8 9 10 12 13 15 16 17 19 20 22 24 26 28 30 33 35 37 38 37 37 36 36 36 36 37 39 40 42 43 43 44 45 45 46 46 46 46 45 47 48 49 49 51 53 53 54 55 57 58 59 59 59 58 57 56 57 59 59 60 62 64 65 64 64 64 66 69 67 66 68 72 72 70 71 71 68 66 61 52 50 53 54 49 45 44
9 10 11 12 13 14 16 17 18 20 22 23 24 25 27 28 30 31 34 36 37 37 37 38 38 38 38 38 39 40 41 42 43 44 45 46 48 48 48 48 48 49 50 51 50 52 54 55 56 57 58 60 60 59 58 58 57 56 58 59 60 62 64 65 66 65 65 65 66 69 69 66 68 72 72 71 71 70 67 62 54 49 49 51 52 49 46 46
13 13 14 15 15 16 18 19 20 22 24 26 28 29 30 31 32 32 34 35 35 36 37 38 39 40 40 41 41 41 42 43 45 47 49 50 51 51 51 51 51 51 51 51 51 53 56 57 57 58 59 60 60 58 58 58 58 58 59 61 62 64 65 66 67 66 66 66 65 68 71 68 68 72 71 70 71 70 64 56 48 46 47 49 52 51 49 48
16 17 17 18 18 19 20 21 22 24 26 28 30 32 34 35 35 35 36 36 36 36 37 37 39 40 42 43 43 44 45 45 47 50 52 51 52 51 51 50 49 49 51 52 52 54 57 57 58 60 60 60 59 58 58 59 60 60 61 63 64 65 67 67 67 67 66 65 64 66 69 68 69 73 70 67 69 67 59 50 44 44 46 50 53 52 52 52
18 19 20 21 21 22 22 23 25 26 27 29 31 33 35 36 38 39 39 39 38 38 37 37 38 39 41 43 44 45 46 48 50 52 51 50 49 48 47 46 47 48 51 52 54 55 56 57 59 60 60 59 59 59 60 61 61 63 64 65 66 67 68 67 66 66 65 64 63 65 68 67 68 73 71 67 66 61 52 45 42 44 48 51 52 53 55 55
21 22 23 23 24 24 25 26 27 28 30 31 32 33 35 37 39 40 41 41 41 40 40 39 39 40 41 42 44 45 47 50 51 49 47 46 46 45 44 45 46 48 51 53 55 55 56 58 60 61 61 60 60 60 62 63 64 65 66 67 68 68 68 67 65 66 65 63 62 64 67 68 68 70 70 66 61 53 46 43 44 47 51 52 52 54 56 58
24 25 25 25 26 27 28 29 30 31 31 31 32 33 35 36 38 40 41 42 42 43 42 42 41 41 42 43 44 46 48 50 48 44 43 44 45 45 46 47 48 50 52 53 55 56 58 60 61 62 62 61 61 62 64 65 66 67 68 69 70 68 66 64 63 63 62 61 61 62 64 66 67 68 68 63 55 48 45 44 47 51 52 53 54 55 58 60
27 27 27 28 28 29 30 31 32 32 31 31 32 33 34 36 37 38 40 40 41 43 44 43 43 43 42 43 44 46 45 44 42 41 43 45 46 47 49 49 50 51 51 52 54 56 58 60 62 62 62 62 63 65 65 66 67 69 71 72 71 69 66 62 61 60 60 59 58 60 62 63 65 65 64 59 51 48 47 48 51 54 54 55 57 59 61 62
29 29 29 29 30 31 32 33 33 32 31 30 31 32 34 35 36 36 37 38 39 42 43 44 43 43 42 42 43 44 41 39 40 43 46 46 47 48 50 51 51 52 52 53 56 57 58 59 61 62 62 64 66 66 67 67 68 70 72 73 71 70 65 61 60 60 60 58 55 56 59 62 63 61 56 53 50 49 50 52 55 56 56 58 60 62 64 65
30 30 31 31 32 33 34 34 33 31 30 30 30 32 33 34 34 34 35 35 37 39 41 42 42 42 42 42 44 43 40 40 43 46 47 46 47 48 50 52 53 54 55 57 58 59 59 59 59 60 63 65 66 68 69 70 70 71 72 71 70 69 66 62 59 59 58 55 52 53 57 60 59 56 53 51 50 51 53 56 59 59 59 61 63 66 67 69
32 32 32 33 34 35 35 34 32 30 29 29 29 30 31 32 32 32 33 33 34 35 38 39 40 41 43 43 43 42 40 41 45 47 48 48 48 49 51 52 55 57 59 60 60 60 59 57 58 62 64 66 67 68 70 72 72 71 70 69 68 67 65 64 61 58 57 52 48 47 52 57 57 54 55 55 53 54 57 60 63 64 64 64 66 68 70 72
33 33 34 35 35 35 34 33 30 28 27 27 27 28 29 30 30 30 31 31 32 33 36 38 39 40 41 40 40 40 40 42 46 48 50 51 51 52 53 54 57 59 60 61 61 60 57 56 59 63 66 68 69 70 72 73 72 70 68 67 66 65 64 63 59 57 55 49 43 41 44 54 58 56 57 57 56 57 60 63 67 68 69 69 71 73 74 77
33 34 35 36 35 34 32 30 28 26 25 25 26 26 27 28 28 29 29 30 30 32 33 35 36 36 36 37 39 41 43 45 48 48 50 53 54 54 55 57 58 59 61 61 59 59 58 57 61 65 68 70 71 72 73 73 71 69 67 66 65 64 63 61 58 55 50 43 40 39 41 50 58 59 59 58 58 60 63 66 69 72 74 76 77 79 81 83
34 35 36 36 34 32 29 27 25 24 24 23 24 24 25 26 27 27 28 28 29 30 30 31 32 33 35 37 40 43 45 46 48 50 51 53 55 55 56 57 58 59 60 59 58 58 60 61 62 66 70 72 73 73 71 70 69 68 66 66 65 63 61 58 55 51 45 40 40 41 41 47 56 61 62 61 62 64 66 69 71 74 77 79 81 83 86 87
35 36 35 34 31 29 26 25 24 23 23 22 23 23 23 24 25 26 26 27 27 28 29 30 32 34 36 38 40 44 46 47 49 51 52 53 53 54 55 57 58 58 57 57 59 61 63 65 65 67 71 72 71 71 69 66 66 66 66 65 63 62 60 55 49 46 43 41 42 43 43 48 56 60 62 64 64 66 68 71 74 76 79 82 83 85 87 89
36 35 33 31 28 26 24 23 23 22 22 22 22 22 22 23 24 25 25 26 26 27 29 31 32 35 38 40 42 44 47 49 50 50 51 52 52 53 55 55 55 55 57 59 61 64 66 68 69 69 71 70 69 69 68 66 64 63 62 61 61 60 57 50 45 46 47 46 47 47 46 52 60 63 65 67 67 68 72 75 77 80 82 85 87 88 90 92
34 32 30 27 25 23 22 22 22 21 21 21 21 21 22 22 23 24 25 26 27 28 29 31 33 35 38 40 43 44 46 48 50 50 50 52 52 53 53 54 54 56 58 61 65 67 69 70 70 69 68 68 68 66 65 65 63 61 60 59 58 56 51 46 44 46 48 50 52 53 51 56 63 67 70 71 71 73 77 79 81 84 86 88 90 92 94 96
31 29 27 24 22 22 21 21 21 20 20 20 20 21 21 22 23 24 25 26 27 29 30 32 34 36 38 41 43 44 45 47 49 50 50 51 52 51 52 53 56 58 61 64 67 69 70 69 68 67 67 67 66 65 63 61 60 60 59 57 53 49 48 48 47 47 48 51 55 57 57 60 65 68 73 74 74 77 81 83 85 87 90 92 94 96 98 101
27 25 24 23 22 21 20 20 20 19 19 19 19 20 21 22 23 24 25 26 28 29 31 33 35 37 39 41 42 43 44 46 48 49 49 50 51 52 53 56 59 61 64 66 68 69 69 68 66 65 65 64 63 62 60 60 61 59 56 51 48 48 49 51 52 52 52 54 58 61 62 66 69 71 74 76 77 81 84 86 89 91 94 96 98 100 102 104
24 22 22 21 21 20 19 19 19 18 18 18 19 20 21 22 24 25 26 27 29 30 31 33 35 36 38 40 41 42 43 44 46 47 48 49 52 54 57 59 61 64 65 66 66 66 66 66 65 62 61 61 60 59 59 59 58 55 51 48 48 50 52 54 55 56 57 59 63 66 67 71 76 78 79 80 82 85 88 91 94 96 98 100 102 103 104 105
22 21 20 19 19 18 18 18 18 17 18 18 19 20 21 22 24 25 27 28 29 31 32 33 35 36 38 39 40 42 42 43 45 47 49 52 54 57 59 61 63 64 64 64 64 63 64 64 63 61 60 60 58 56 54 52 49 47 47 48 50 53 55 57 59 60 62 63 66 71 71 73 79 84 85 86 88 90 92 95 97 99 102 103 103 103 104 106
21 20 19 18 17 17 17 17 17 18 18 19 20 21 22 23 24 26 27 29 30 32 33 34 36 37 38 39 41 42 44 46 47 50 52 54 56 58 60 61 62 62 62 61 61 60 59 61 62 61 60 58 53 49 46 44 44 45 47 50 52 55 58 61 63 65 67 68 70 75 77 77 80 85 88 89 91 93 95 97 99 101 102 103 103 103 106 108
20 19 17 17 16 16 17 17 18 18 19 20 21 22 24 25 26 27 29 30 31 33 33 35 36 37 39 40 42 45 47 49 51 52 54 56 57 58 59 59 59 60 59 59 58 57 57 59 59 57 54 50 46 44 43 44 45 47 50 53 55 58 60 64 67 69 72 73 75 79 83 84 85 87 90 92 94 95 97 98 99 100 102 103 104 106 109 112
18 17 16 16 16 16 17 17 18 19 20 21 22 24 25 26 27 29 30 31 32 33 34 36 37 39 40 42 44 47 49 51 53 54 55 56 57 56 57 57 57 57 56 56 56 56 55 54 51 48 47 47 45 45 46 47 49 51 54 57 59 61 64 67 71 73 75 77 80 83 86 89 90 91 92 95 97 97 97 98 99 102 104 106 108 111 114 116
17 16 15 15 15 16 17 17 19 20 21 22 23 24 25 27 28 29 30 31 33 34 36 37 39 41 43 45 46 48 50 52 54 55 55 56 56 55 55 55 54 54 54 55 55 52 48 45 44 43 45 47 48 49 50 52 53 55 58 61 63 65 68 71 75 77 79 81 84 86 88 91 93 94 95 97 97 98 98 100 103 106 108 110 112 115 118 121
16 16 15 15 16 16 17 17 19 20 21 22 23 24 25 27 28 30 31 33 35 37 38 40 42 43 45 47 48 50 51 52 53 54 54 54 54 53 52 52 52 52 53 51 49 45 41 41 42 43 45 49 52 53 54 56 58 59 62 65 67 69 72 75 79 81 83 84 87 89 90 92 94 95 96 97 98 100 102 104 107 111 113 115 118 120 123 126
16 16 16 16 16 16 17 18 19 20 21 22 24 25 26 28 30 32 33 35 37 39 41 42 44 46 47 48 49 50 51 52 52 52 52 51 51 50 49 50 50 49 47 44 42 41 40 41 43 45 47 51 54 55 56 58 61 64 67 70 72 74 76 79 82 85 86 87 89 91 91 91 92 93 95 98 102 105 107 110 112 115 117 120 122 125 127 129
16 17 17 17 17 17 18 19 20 21 23 24 25 27 28 30 32 34 36 38 40 41 43 45 46 47 48 49 50 50 51 51 51 50 49 48 48 48 48 47 45 42 40 40 40 41 42 44 46 48 50 53 56 58 60 62 64 67 70 73 76 77 79 82 85 88 89 90 91 91 90 91 92 94 97 100 104 108 112 115 118 121 122 124 126 128 130 132
Wind_Direction
206 205 206 207 209 210 211 211 211 211 212 213 214 214 214 214 214 214 215 215 218 221 224 225 226 227 229 231 233 235 237 239 242 244 247 250 252 253 255 256 258 260 262 264 267 269 271 273 274 276 277 278 279 280 281 282 283 284 285 286 287 288 289 290 291 292 293 293 293 293 292 292 292 292 291 291 290 288 287 286 286 286 287 287 287 288 288 288
211 209 208 208 209 210 211 211 212 212 212 213 215 216 216 217 217 218 218 218 219 221 224 227 229 230 231 233 235 237 238 241 244 246 249 251 253 255 257 258 260 261 263 265 267 269 270 272 273 275 276 277 279 280 281 283 284 285 286 287 289 290 291 292 292 292 292 292 292 292 292 292 292 291 291 290 289 288 287 286 287 287 288 288 289 289 290 290
216 213 212 211 210 210 211 212 212 213 213 213 215 217 218 219 219 220 221 221 222 224 225 227 229 231 233 234 237 238 240 243 245 248 250 252 254 256 258 259 261 262 264 265 267 269 270 272 273 275 277 279 280 282 283 284 285 287 288 289 290 291 292 292 292 292 292 292 292 292 292 292 292 291 291 290 289 288 288 288 289 289 290 290 291 291 291 292
222 220 217 214 213 212 212 212 213 213 213 214 215 217 218 220 221 222 223 224 225 226 228 229 230 231 233 235 237 239 242 244 247 249 251 253 255 257 259 261 262 264 266 267 269 270 272 274 276 278 279 281 282 284 285 286 287 289 290 291 291 292 292 292 292 292 292 293 293 293 293 293 292 292 292 291 291 290 290 290 291 291 293 293 293 293 293 294
226 225 223 219 217 215 214 214 213 214 214 214 215 217 218 220 221 223 224 226 227 228 230 231 232 234 235 237 239 241 243 245 247 249 251 254 256 258 260 262 264 266 268 270 271 273 275 277 278 280 282 283 285 286 287 288 289 290 291 291 291 291 292 292 293 293 294 294 294 294 294 294 295 295 295 293 292 292 292 292 294 295 295 295 295 295 295 296
231 229 227 225 222 219 217 216 216 216 215 214 215 217 219 220 222 223 225 227 228 230 232 233 235 237 239 240 241 243 245 247 249 251 253 256 258 260 262 264 266 268 270 271 273 275 277 279 281 282 284 285 286 287 288 289 289 290 290 291 291 292 293 294 294 295 295 295 296 296 297 297 297 298 296 295 294 294 294 294 295 296 296 296 295 296 296 297
237 234 231 228 226 223 220 219 218 218 217 216 216 217 219 221 222 224 225 227 229 231 233 235 237 239 241 242 244 245 248 250 252 254 256 258 260 262 264 266 267 269 271 273 275 277 279 281 282 283 284 285 286 287 288 288 289 289 290 291 292 293 294 295 295 295 296 297 297 298 299 299 299 299 297 296 295 294 294 295 296 295 296 296 296 297 298 298
238 237 234 229 227 225 222 219 218 219 219 218 217 218 219 221 223 225 226 228 229 231 233 235 237 240 242 244 246 248 250 252 254 256 258 260 261 263 265 267 269 271 273 275 277 279 280 281 282 283 284 285 286 287 287 288 288 289 290 291 293 294 295 296 296 297 297 298 299 300 300 300 300 299 298 297 295 294 294 295 295 296 296 297 297 298 299 298
237 235 233 229 225 224 222 218 216 219 220 220 219 219 220 222 224 225 227 229 230 232 234 236 238 240 243 245 247 250 252 253 256 257 259 261 263 265 267 269 271 273 275 277 278 279 281 281 282 283 284 285 286 286 287 287 288 289 290 292 293 294 295 296 297 298 298 299 300 300 300 300 300 300 298 296 295 294 294 295 296 296 297 297 298 299 298 298
239 230 229 227 223 221 220 216 215 217 219 220 220 219 220 222 224 226 228 230 232 233 235 237 239 242 244 246 248 251 253 255 257 259 261 264 266 268 270 272 274 275 276 278 279 280 280 281 282 283 284 285 285 286 286 287 289 290 291 293 294 295 296 297 299 299 300 300 301 301 301 300 301 300 298 296 295 295 295 296 296 297 297 297 298 298 298 298
238 225 222 219 217 215 215 214 214 216 217 219 220 220 221 222 224 226 229 231 233 235 237 239 241 243 245 247 250 252 255 257 259 262 264 266 268 270 271 273 274 276 277 278 279 279 280 281 282 283 284 284 285 286 287 288 290 291 293 294 295 296 297 299 300 300 301 301 301 301 300 300 300 299 298 297 296 295 296 296 296 297 297 297 298 298 297 298
223 212 210 206 206 207 209 210 211 213 215 218 220 220 221 222 224 227 229 231 233 236 238 240 243 245 247 250 252 254 257 259 261 263 265 267 268 270 272 273 274 276 276 277 278 279 280 281 282 283 284 285 286 287 288 290 291 293 294 295 296 297 298 300 300 300 301 301 300 300 300 299 299 299 298 297 296 295 296 296 296 296 297 297 297 297 297 299
182 184 190 187 189 196 200 204 207 210 214 217 218 220 222 223 225 227 229 231 234 236 239 241 244 246 249 251 253 255 257 259 262 263 265 267 268 270 272 273 274 275 276 277 278 279 280 281 282 283 284 286 287 288 290 291 293 294 295 296 297 298 300 300 300 300 301 300 299 299 299 298 298 298 298 297 295 295 295 295 296 296 296 297 297 297 299 300
124 139 164 167 172 182 191 198 203 208 212 215 217 220 223 225 226 228 230 232 234 237 239 242 244 246 249 251 253 255 257 259 261 263 265 267 268 270 271 272 273 274 275 277 278 279 281 282 283 284 285 286 287 289 291 292 294 295 296 297 298 299 299 299 298 299 300 300 299 299 298 297 297 297 297 296 295 295 295 295 295 296 296 296 297 299 300 303
112 118 130 144 155 167 180 192 200 206 210 213 216 219 223 226 228 230 231 233 235 237 240 242 244 246 248 251 253 256 258 260 262 263 265 267 268 269 270 272 273 274 276 277 279 280 281 282 284 285 286 287 289 290 292 294 295 296 297 298 298 298 298 298 297 298 299 300 299 299 298 297 297 297 297 296 295 295 295 295 295 296 296 297 299 301 302 304
111 114 114 121 136 150 166 182 194 202 207 211 215 219 223 226 229 231 233 235 237 239 241 243 245 247 249 252 255 257 259 260 262 264 266 267 268 269 271 272 274 276 277 278 280 281 282 283 285 286 287 288 290 291 293 294 296 297 298 298 297 297 297 297 297 298 300 299 299 299 298 297 297 298 298 296 296 296 295 295 296 296 298 299 301 302 303 305
117 119 116 116 125 140 153 168 183 195 203 208 213 218 222 226 229 232 234 236 237 239 242 244 246 249 251 253 255 257 259 261 263 265 266 267 268 270 271 273 275 276 278 279 280 281 283 284 285 286 288 289 291 292 294 295 296 298 298 298 298 297 297 297 298 299 300 299 299 298 298 298 297 298 298 297 297 296 296 296 297 298 299 301 303 303 304 306
132 134 136 136 140 148 156 166 176 187 197 204 211 217 222 227 230 233 235 237 238 240 243 245 247 250 252 253 255 257 259 261 263 264 266 267 269 270 272 273 274 276 277 279 280 282 283 284 285 287 289 290 292 293 295 296 297 298 298 298 298 297 297 298 298 299 299 299 298 298 298 298 298 299 298 298 297 297 297 297 298 300 301 303 304 304 306 307
136 143 150 155 158 161 168 177 184 190 197 204 211 217 222 227 230 233 235 238 240 243 245 247 248 249 250 252 254 256 259 261 263 265 266 268 269 271 272 273 274 276 278 279 281 282 283 284 285 287 289 291 293 295 296 297 298 299 299 298 297 297 297 298 298 298 298 299 298 298 299 298 298 299 298 298 298 297 297 298 300 301 303 304 305 307 309 306
122 145 162 175 178 181 184 190 196 201 206 210 215 219 224 228 232 235 238 240 243 244 246 247 248 249 250 252 255 258 261 263 265 266 268 269 270 271 272 273 275 277 278 280 281 283 283 285 286 288 290 292 294 295 296 298 299 299 299 298 297 297 297 298 299 298 298 299 298 299 299 299 298 298 298 298 298 298 298 299 301 303 304 306 308 310 307 304
94 128 163 187 203 211 212 212 213 215 217 218 220 223 226 230 234 237 240 243 243 243 244 246 248 249 251 254 258 262 264 266 267 268 268 269 269 271 272 274 276 278 280 282 284 284 285 286 287 289 292 293 295 295 296 298 299 299 297 296 296 296 297 298 299 299 299 299 299 299 300 300 299 299 298 298 299 299 300 301 303 304 306 308 311 309 303 304
93 116 164 197 209 219 224 228 231 233 233 232 230 230 229 231 233 235 238 240 243 243 243 244 246 249 252 256 260 263 265 266 267 267 266 267 269 272 274 277 280 282 284 285 286 286 286 287 289 291 293 294 295 295 296 298 298 297 296 295 295 297 298 298 299 299 300 301 300 300 300 299 299 299 298 299 300 300 301 303 304 306 308 311 310 304 302 307
26 290 248 240 236 233 232 231 233 237 241 242 242 240 237 234 233 234 236 238 242 244 245 245 246 249 252 256 259 260 261 262 262 263 265 268 271 274 277 280 282 284 285 286 286 287 288 289 291 293 294 295 296 296 297 297 297 297 296 296 297 298 298 299 300 300 301 301 300 299 299 299 299 299 299 300 301 301 302 303 304 307 311 311 306 300 303 309
345 325 302 283 269 259 253 246 241 240 241 242 244 245 245 242 239 238 239 241 244 247 248 249 249 249 251 253 255 257 259 261 263 266 269 271 273 275 277 280 282 284 286 287 288 289 289 290 292 294 295 296 296 297 297 297 296 297 297 297 299 299 300 301 301 301 302 302 301 300 300 300 300 299 299 301 301 300 301 302 305 310 313 309 302 299 306 309
331 321 310 298 287 278 271 264 259 256 252 248 246 246 246 247 246 246 246 248 250 252 251 251 251 251 252 253 255 257 260 264 268 270 272 273 274 275 277 280 282 286 287 288 289 290 290 291 293 295 296 296 297 297 297 296 296 297 297 298 299 300 301 303 303 303 302 302 301 300 301 301 301 299 299 300 300 300 301 304 309 313 313 306 299 301 308 308
320 313 307 299 290 283 278 274 272 270 267 264 260 256 253 251 250 250 251 252 253 254 254 253 253 253 253 254 256 259 262 266 268 269 270 272 274 277 279 282 284 287 288 289 290 291 291 293 295 296 297 297 298 297 297 297 297 298 298 298 300 301 303 304 304 304 303 302 302 302 302 303 302 301 300 300 300 300 303 309 314 314 311 302 298 304 310 310
313 310 306 301 294 286 281 277 275 273 273 272 270 268 265 260 256 254 253 254 255 256 256 255 255 255 254 254 256 259 262 264 267 268 270 273 276 279 281 283 286 288 288 289 290 291 292 294 296 297 298 298 298 297 297 297 298 298 298 299 301 303 304 305 305 305 304 304 304 304 304 304 304 301 300 301 300 301 307 313 315 312 306 298 300 308 311 311
309 308 305 301 296 290 285 281 278 277 275 274 272 271 268 266 264 261 258 257 257 257 258 258 258 257 257 257 257 259 262 266 268 271 273 276 279 281 283 285 286 287 288 288 289 290 292 295 297 298 299 298 297 297 297 297 298 299 300 301 302 304 305 305 305 305 305 305 305 305 304 304 304 300 299 299 299 304 311 314 313 309 302 298 303 310 311 310
308 307 305 302 297 292 289 285 282 281 279 277 274 271 269 266 265 264 263 261 259 258 259 260 261 261 261 261 260 261 263 266 269 272 277 281 282 283 284 285 286 286 287 288 289 291 293 295 297 298 298 298 297 297 297 297 299 300 301 302 303 305 305 306 306 306 306 306 307 306 304 304 302 300 299 300 301 307 312 313 312 307 300 301 307 310 309 309
308 307 305 302 298 295 291 288 286 284 282 280 276 273 269 266 264 263 263 263 262 261 261 261 262 263 264 264 264 264 265 267 271 275 279 281 282 283 284 285 285 285 286 289 290 292 294 295 297 297 298 297 297 297 297 298 300 301 302 303 304 305 306 306 307 307 307 307 308 306 304 303 300 298 298 299 304 310 312 312 310 304 301 304 308 309 308 308
309 306 304 301 298 295 292 290 288 286 284 281 277 273 270 266 265 263 263 264 264 262 261 260 261 263 265 266 266 266 267 270 273 277 279 280 281 283 283 284 284 285 287 289 291 293 295 296 297 297 297 297 298 298 299 300 301 302 303 304 305 305 306 307 307 307 307 307 307 305 302 300 299 298 298 301 307 311 311 312 308 303 303 306 308 307 306 305
308 305 303 300 297 295 293 290 289 287 285 282 277 273 270 268 266 265 265 265 263 261 260 259 259 261 264 267 268 269 269 271 273 275 277 280 282 284 284 284 284 285 287 288 290 293 295 297 297 297 298 298 299 299 300 301 303 304 304 305 306 306 307 308 308 307 306 306 306 305 302 300 297 296 298 302 308 310 310 310 306 303 305 307 307 306 305 304
306 304 302 299 297 295 293 292 290 289 286 281 277 274 271 270 268 266 266 265 262 260 259 258 258 260 263 266 267 269 269 269 272 274 276 280 284 285 285 284 285 286 286 288 290 291 293 295 296 296 298 299 299 300 301 302 303 304 305 305 307 307 307 309 308 308 307 307 308 305 301 298 295 295 298 303 307 309 309 307 303 303 305 306 305 304 304 304
304 303 301 300 298 296 294 293 292 290 286 280 276 274 272 270 269 268 267 266 263 260 258 257 258 259 261 262 264 265 266 267 270 273 276 280 283 283 283 284 285 286 288 289 291 292 294 295 295 296 298 298 299 301 302 302 303 304 305 306 307 307 308 309 308 308 307 308 309 305 301 298 295 297 300 303 306 308 307 305 303 304 305 305 304 303 303 303
304 303 302 300 298 296 295 294 292 289 284 280 276 273 272 271 270 268 267 266 263 259 256 255 256 258 260 261 263 265 265 268 270 272 275 278 280 281 283 285 287 289 291 291 292 293 295 296 297 298 299 299 300 301 302 303 303 305 306 306 307 307 308 308 309 309 309 309 307 303 301 298 297 300 303 304 307 308 306 304 304 304 304 303 302 302 302 303
304 303 302 300 298 296 295 293 291 287 283 279 275 272 271 270 269 268 267 266 263 259 256 256 257 260 263 266 267 266 266 268 270 273 277 280 282 284 285 287 288 289 290 291 293 294 296 298 299 300 300 300 301 302 302 303 304 306 307 307 307 307 307 307 309 310 308 308 305 302 301 299 299 301 302 304 307 306 305 304 304 304 304 303 303 303 304 305
305 304 302 300 298 296 294 292 289 285 281 277 274 272 271 269 268 267 266 264 262 260 259 260 261 264 266 267 268 267 267 269 272 276 279 281 283 285 286 287 288 289 290 292 294 296 299 301 302 301 301 301 302 303 303 304 306 307 307 307 307 307 307 308 310 309 307 305 303 301 301 300 301 301 301 303 305 304 304 304 305 305 305 306 306 307 307 307
305 304 302 299 297 295 292 289 286 282 279 277 274 272 270 268 267 265 264 264 263 262 261 261 262 263 264 266 268 269 270 273 275 277 278 280 282 284 286 287 288 290 292 294 296 299 301 302 303 302 301 302 302 303 304 305 306 307 307 307 307 307 308 309 309 307 304 304 302 300 300 300 300 301 302 303 304 304 304 304 304 305 305 306 306 306 307 306
305 304 301 298 296 293 290 287 284 281 279 276 274 272 269 268 266 264 263 262 262 262 262 261 260 262 263 265 267 270 272 273 275 276 278 281 283 285 286 288 289 292 294 297 299 301 301 302 302 301 301 302 303 303 304 305 306 306 306 306 307 308 309 309 307 305 303 302 300 299 299 299 298 298 300 301 302 303 304 303 303 304 304 304 304 304 304 304
306 304 300 297 294 292 289 286 284 282 279 277 275 273 270 268 266 266 265 263 262 263 263 263 263 264 265 266 267 269 271 274 276 278 281 282 284 286 288 290 292 295 298 299 300 300 301 301 302 302 302 303 303 304 305 305 305 305 305 306 307 308 308 307 306 305 304 304 301 300 301 301 298 299 300 300 302 304 303 303 303 303 303 303 303 302 302 302
306 304 299 296 294 292 289 288 285 283 281 278 276 274 272 270 268 268 267 266 265 265 266 267 267 267 268 268 269 271 273 276 279 280 282 284 286 289 291 294 296 298 299 300 300 300 300 301 302 303 303 303 303 304 305 305 305 305 305 307 307 306 305 304 303 303 303 304 303 302 304 302 301 302 302 303 305 306 304 304 304 303 303 303 303 303 303 303
307 304 299 296 295 293 291 289 286 284 281 279 277 275 274 274 273 273 272 271 270 270 270 270 269 269 269 270 271 273 275 277 279 282 284 287 290 293 295 297 298 299 299 299 299 300 301 302 303 304 304 303 303 304 305 305 305 305 307 307 306 304 303 302 301 301 301 302 302 303 305 303 302 302 302 304 307 306 304 304 304 304 303 303 303 304 304 304
307 304 299 298 297 295 293 290 287 285 283 280 279 278 277 278 278 277 277 276 275 274 273 272 271 272 272 273 274 276 278 280 283 285 288 291 294 296 297 298 298 298 298 299 300 301 302 303 303 303 303 303 304 305 305 305 306 307 308 307 305 303 302 302 302 302 303 303 303 304 305 304 303 302 303 305 306 304 304 304 304 304 304 304 304 304 304 304
307 304 300 298 297 296 293 291 288 286 284 283 281 280 281 281 281 280 280 279 279 277 277 276 276 276 277 278 280 282 284 285 287 290 293 295 296 297 298 297 297 298 298 300 301 302 303 303 303 303 303 303 303 304 305 305 306 307 307 305 304 302 302 301 302 303 304 305 305 305 306 306 305 305 305 306 306 305 305 305 305 305 304 304 304 304 304 304
307 303 300 298 297 295 292 290 288 287 285 284 284 284 283 283 282 282 281 281 281 281 281 281 282 282 283 285 287 288 290 291 292 294 295 296 296 297 297 297 297 299 300 302 303 303 303 303 303 304 303 303 304 305 305 305 305 305 304 303 302 301 301 301 302 304 305 306 305 305 305 306 305 305 306 307 306 306 305 305 304 304 304 304 304 304 304 304
307 304 301 298 295 293 291 290 290 288 287 287 286 285 285 284 283 283 283 284 284 284 285 286 287 288 289 290 292 293 294 295 296 296 296 296 296 296 296 298 299 301 302 303 303 303 303 303 304 305 305 306 307 307 307 306 305 304 302 301 300 300 301 302 303 304 305 306 305 304 305 305 304 305 306 306 305 304 304 304 303 304 303 304 304 304 304 303
308 306 303 299 296 294 293 293 293 292 291 291 289 288 288 288 289 289 289 289 290 290 291 291 292 293 293 294 295 296 296 297 296 296 296 296 296 297 299 300 302 303 303 304 303 304 304 304 305 306 307 308 309 308 307 305 304 303 301 301 301 301 302 303 303 304 305 305 305 305 305 305 305 305 305 304 304 304 304 304 304 304 303 303 303 303 302 302
309 307 304 301 299 297 296 296 295 295 294 293 293 292 293 293 294 294 294 294 294 294 295 295 295 296 296 296 296 296 296 296 296 296 296 297 299 301 302 303 304 304 304 304 304 304 305 306 307 309 309 309 308 307 306 305 304 303 302 302 302 302 303 303 303 304 304 305 306 305 305 306 305 305 305 304 304 304 304 304 304 303 303 303 303 302 302 303
308 307 305 303 301 300 299 298 297 297 297 296 296 296 296 296 296 297 297 297 297 297 297 297 297 297 296 296 296 296 296 296 297 298 299 301 303 304 305 305 305 305 304 304 305 306 308 308 309 310 309 308 307 307 307 306 306 305 304 302 303 303 304 304 304 305 306 306 306 305 305 305 305 305 305 305 305 305 305 305 304 303 303 303 303 304 304 305
309 309 308 306 303 302 301 300 299 299 298 299 299 299 299 298 298 298 298 298 298 298 297 297 297 296 296 296 296 296 297 298 299 300 302 304 305 305 305 305 305 305 305 305 306 308 309 308 308 308 308 307 307 307 307 307 306 305 304 304 304 305 306 306 306 306 307 306 306 305 305 306 306 306 306 306 306 305 305 304 304 303 304 305 305 306 306 306
312 312 310 308 306 305 305 303 302 302 301 301 301 300 299 299 298 298 298 298 298 298 298 298 298 298 298 298 299 299 300 301 302 303 304 305 305 305 305 305 305 306 306 306 307 307 307 307 306 306 307 306 306 306 306 306 306 306 306 306 307 308 308 307 307 306 306 306 305 305 305 306 306 306 306 306 305 305 305 305 304 305 305 306 306 306 306 306
312 311 310 309 308 308 308 306 305 304 302 302 301 300 299 299 299 299 300 300 300 300 300 301 301 301 301 301 302 303 303 304 305 305 305 305 305 305 305 306 306 306 305 305 305 305 305 305 305 305 306 306 306 306 306 307 307 308 308 307 308 308 307 307 307 307 307 306 306 306 306 306 305 305 305 305 305 306 306 306 306 306 307 307 307 307 307 307